Regional Weather Roundup
Issued by NWS

Home | Current Version | Previous Version | Text Only | Print | Product List | Glossary Off
Versions: 1 2 3 4 5 6 7 8 9 10 11 12 13 14 15 16 17 18 19 20 21 22 23 24 25 26 27 28 29 30 31 32 33 34 35 36 37 38 39 40 41 42 43 44 45 46 47 48 49 50

943
ASUS43 KOAX 130210
RWRNE

WEATHER ROUNDUP FOR NEBRASKA
NATIONAL WEATHER SERVICE OMAHA NE
800 PM CST FRI FEB 12 2016

NOTES: SATELLITE DATA IS BEING USED TO AUGMENT CLOUD COVER ABOVE
       12000 FEET.
       "FAIR" INDICATES FEW OR NO CLOUDS BELOW 12,000 FEET WITH NO
       SIGNIFICANT WEATHER AND/OR OBSTRUCTIONS TO VISIBILITY.

  * THESE STATIONS DO NOT REPORT WEATHER SUCH AS RAIN...SNOW OR FOG.

NEZ001>004-019>022-054>056-130300-
NEBRASKA PANHANDLE

CITY           SKY/WX    TMP DP  RH WIND       PRES   REMARKS
SCOTTSBLUFF    CLOUDY    33  30  88 SE17      30.29F WCI  22
ALLIANCE       CLOUDY    33  29  85 S12       30.30F WCI  24
CHADRON        CLOUDY    31  26  82 SE3       30.30F
KIMBALL        FOG       31  31 100 SE14      30.28S VSB 1/2 WCI  21
SIDNEY         FOG       30  30 100 S15       30.32S VSB 1/4 WCI  19
$$

NEZ057>060-069>072-079>082-130300-
SOUTHWEST NEBRASKA

CITY           SKY/WX    TMP DP  RH WIND       PRES   REMARKS
NORTH PLATTE   MIX PCPN  28  24  85 E14       30.43S WCI  17
IMPERIAL       CLOUDY    32  28  85 SE14      30.38R WCI  22
LEXINGTON      CLOUDY    26  20  77 E9        30.48S WCI  17
MCCOOK         CLOUDY    29  27  92 E15       30.44R FOG     WCI  18
OGALLALA       CLOUDY    33  29  86 E7        30.38S WCI  26
$$

NEZ005>010-023>029-035>040-094-130300-
NORTH CENTRAL NEBRASKA

CITY           SKY/WX    TMP DP  RH WIND       PRES   REMARKS
VALENTINE      CLOUDY    23  15  71 E12       30.45F WCI  12
AINSWORTH      CLOUDY    22  15  74 E8        30.47S WCI  13
BROKEN BOW     CLOUDY    24  18  77 E9        30.47R WCI  14
O`NEILL        CLOUDY    16   9  71 NE8       30.55R WCI   6
ORD            CLOUDY    20  12  71 E7        30.53R WCI  11
THEDFORD       CLOUDY    27  22  80 E7        30.42F WCI  20
$$

NEZ041-046>049-061>064-073>077-083>087-130300-
SOUTH CENTRAL NEBRASKA

CITY           SKY/WX    TMP DP  RH WIND       PRES   REMARKS
GRAND ISLAND   CLOUDY    20  13  74 NE13      30.56R WCI   7
AURORA         CLOUDY    19  12  72 NE12      30.56R WCI   7
HASTINGS       CLOUDY    22  14  71 E12       30.53R WCI  10
HEBRON         CLOUDY    24  15  70 NE13      30.56S WCI  12
HOLDREGE       CLOUDY    25  18  75 E12       30.49S WCI  14
KEARNEY *      CLOUDY    25  16  68 E13       30.52R WCI  13
YORK           CLOUDY    19  12  73 NE12      30.57R WCI   7
$$

NEZ011>018-030>034-042>045-130300-
NORTHEAST NEBRASKA

CITY           SKY/WX    TMP DP  RH WIND       PRES   REMARKS
NORFOLK        CLOUDY    14   5  67 N7        30.58S WCI   4
ALBION         CLOUDY    16   8  73 NE9       30.56S WCI   4
BLAIR          CLOUDY    13   4  68 N7        30.58S WCI   2
COLUMBUS *     CLOUDY    16   0  48 NE8       30.60R WCI   5
FREMONT        CLOUDY    13   1  61 CALM      30.61R
TEKAMAH        CLOUDY    10   4  76 N5        30.63R WCI   2
WAYNE          PTCLDY    10   3  75 N5        30.60S WCI   1
$$

NEZ050>053-065>068-078-088>093-130300-
SOUTHEAST NEBRASKA

CITY           SKY/WX    TMP DP  RH WIND       PRES   REMARKS
LINCOLN        CLEAR     17  10  74 N13       30.61S WCI   4
OMAHA EPPLEY   CLOUDY    14   3  61 N9        30.62S WCI   2
BEATRICE       CLOUDY    20  13  73 N12       30.58R WCI   8
FALLS CITY     CLEAR     19   8  62 NE9       30.58R WCI   8
NEBRASKA CITY  CLOUDY    17   8  67 N14       30.59R WCI   3
PLATTSMOUTH    CLOUDY    15   4  61 N7        30.60R WCI   5
$$

NEZ044-045-051>053-067-130300-
OMAHA AREA

CITY           SKY/WX    TMP DP  RH WIND       PRES   REMARKS
OMAHA EPPLEY   CLOUDY    14   3  61 N9        30.62S WCI   2
BLAIR          CLOUDY    13   4  68 N7        30.58S WCI   2
FREMONT        CLOUDY    13   1  61 CALM      30.61R
MILLARD        CLOUDY    15   2  54 N5        30.61S WCI   8
OFFUTT AFB     CLOUDY    15   1  53 N9        30.60S WCI   3
PLATTSMOUTH    CLOUDY    15   4  61 N7        30.60R WCI   5
WAHOO          FAIR      13   6  74 N8        30.60R WCI   2
$$




USA.gov is the U.S. government's official web portal to all federal, state and local government web resources and services.